Flag for U.S.A. Weather past 2 weeks in Wake Island, Wake Island, U.S.A.

Now
82 °F

Partly cloudy.


Feels Like: 90 °F
Forecast: 80 / 88 °F
Wind: 21 mph from East

Location: Wake Island Airfld

Current Time: Jul 4, 2015 at 10:45:11 PM

Latest Report: Jul 4, 2015 at 9:58 PM


Visibility: N/A

Pressure: 29.90 "Hg

Humidity: 85%

Dew point: 77 °F

Location of Wake IslandLocation

Historic Weather in Wake Island — Graph

°F

Wake Island temperature yesterday

Maximum temperature yesterday: 86 °F (at 12:58 PM)
Minimum temperature yesterday: 79 °F (at 1:58 AM)
Average temperature yesterday: 83 °F

Past Weeks' High & Low Weather Summary

 TemperatureHumidityPressure
High88 °F (Jun 30, 2:58 PM)100% (Jun 24, 2:58 AM)30.02 "Hg (Jun 24, 2:58 AM)
Low75 °F (Jun 24, 2:58 AM)62% (Jun 22, 3:58 PM)29.82 "Hg (Jul 4, 5:03 PM)
Average83 °F79%29.93 "Hg
* Reported Jun 19 8:58 PM — Jul 4 8:58 PM, Wake Island, Weather by CustomWeather, © 2015

Note: Actual official high and low records may vary slightly from our data, if they occured in-between our weather recording intervals... More about our weather records

Advertising

Wake Island weather history for previous 24 hours

 ConditionsComfort  
Time TempWeatherWind HumidityBarometerVisibility
8:58 PM
Sat, Jul 4
82 °FPassing clouds.23 mph85%29.88 "HgN/A
7:58 PM81 °FLow clouds.18 mph93%29.87 "HgN/A
6:58 PM82 °FMostly cloudy.21 mph86%29.85 "HgN/A
5:58 PM84 °FScattered clouds.21 mph80%29.85 "HgN/A
5:03 PM84 °FBroken clouds.20 mph84%29.82 "HgN/A
4:58 PM85 °FBroken clouds.21 mph83%29.84 "HgN/A
3:58 PM82 °FBroken clouds.20 mph92%29.85 "HgN/A
3:00 PM82 °FCloudy.17 mph94%29.83 "HgN/A
2:58 PM81 °FLight rain. Fog.15 mph94%29.86 "Hg3 mi
1:58 PM81 °FCloudy.15 mph94%29.87 "HgN/A
12:58 PM86 °FScattered clouds.16 mph77%29.88 "HgN/A
11:58 AM84 °FPartly sunny.17 mph81%29.89 "HgN/A
10:58 AM83 °FPassing clouds.16 mph87%29.88 "HgN/A
9:58 AM84 °FPartly sunny.21 mph78%29.89 "HgN/A
8:58 AM84 °FScattered clouds.20 mph79%29.89 "HgN/A
7:58 AM82 °FBroken clouds.16 mph83%29.89 "HgN/A
6:58 AM81 °FPartly cloudy.14 mph89%29.88 "HgN/A
5:58 AM80 °FClear.14 mph89%29.88 "HgN/A
4:58 AM80 °FPassing clouds.12 mph92%29.88 "HgN/A
4:02 AM81 °FPartly cloudy.12 mph89%29.86 "HgN/A
3:58 AM81 °FLight rain. Fog.12 mph89%29.88 "Hg3 mi
3:03 AM81 °FPassing clouds.16 mph89%29.86 "HgN/A
2:58 AM80 °FPartly cloudy.15 mph88%29.88 "HgN/A
1:58 AM80 °FPassing clouds.14 mph89%29.89 "HgN/A
12:58 AM81 °FPassing clouds.15 mph83%29.90 "HgN/A
11:58 PM
Fri, Jul 3
82 °FPassing clouds.13 mph82%29.92 "HgN/A
10:58 PM82 °FClear.15 mph79%29.90 "HgN/A
Weather by CustomWeather, © 2015

See weather overviewHow to use our weather pages